| time (UTC) | temp C | wind direction | speed KPH | gust KPH | rain 1hr cm | rain 24hr cm | rain mn cm | humidity % | barometer mb |
| 20260503051034 | 16 | 360 | 8.0 | 16.1 | 0.00 | 0.00 | 0.00 | 41 | 1009.4 |
| 20260503050534 | 16 | 360 | 6.4 | 16.1 | 0.00 | 0.00 | 0.00 | 39 | 1009.8 |
| 20260503050035 | 16 | 360 | 8.0 | 16.1 | 0.00 | 0.00 | 0.00 | 39 | 1010.2 |
| 20260503045533 | 16 | 360 | 6.4 | 9.7 | 0.00 | 0.00 | 0.00 | 42 | 1010.3 |
| 20260503045034 | 16 | 360 | 0.0 | 6.4 | 0.00 | 0.00 | 0.00 | 40 | 1010.6 |
| 20260503044538 | 16 | 360 | 1.6 | 8.0 | 0.00 | 0.00 | 0.00 | 39 | 1010.7 |
| 20260503044033 | 16 | 360 | 4.8 | 9.7 | 0.00 | 0.00 | 0.00 | 38 | 1010.5 |
| 20260503043532 | 16 | 360 | 4.8 | 14.5 | 0.00 | 0.00 | 0.00 | 37 | 1010.1 |
| 20260503043032 | 16 | 360 | 6.4 | 14.5 | 0.00 | 0.00 | 0.00 | 37 | 1009.9 |
| 20260503042534 | 16 | 360 | 1.6 | 19.3 | 0.00 | 0.00 | 0.00 | 37 | 1009.8 |
| 20260503042031 | 16 | 360 | 11.3 | 20.9 | 0.00 | 0.00 | 0.00 | 37 | 1009.8 |
| 20260503041535 | 16 | 360 | 9.7 | 20.9 | 0.00 | 0.00 | 0.00 | 36 | 1009.8 |
| 20260503041030 | 17 | 360 | 12.9 | 19.3 | 0.00 | 0.00 | 0.00 | 34 | 1009.6 |
| 20260503040530 | 17 | 360 | 4.8 | 14.5 | 0.00 | 0.00 | 0.00 | 29 | 1009.5 |
| 20260503040035 | 17 | 360 | 4.8 | 12.9 | 0.00 | 0.00 | 0.00 | 29 | 1009.4 |
| 20260503035530 | 17 | 360 | 3.2 | 17.7 | 0.00 | 0.00 | 0.00 | 29 | 1009.4 |
| 20260503035030 | 17 | 360 | 9.7 | 19.3 | 0.00 | 0.00 | 0.00 | 29 | 1009.2 |
| 20260503034530 | 17 | 360 | 11.3 | 19.3 | 0.00 | 0.00 | 0.00 | 30 | 1009.1 |
| 20260503034032 | 17 | 360 | 0.0 | 17.7 | 0.00 | 0.00 | 0.00 | 32 | 1009.2 |
| 20260503033528 | 17 | 360 | 6.4 | 17.7 | 0.00 | 0.00 | 0.00 | 33 | 1009.2 |
| 20260503033028 | 17 | 360 | 1.6 | 20.9 | 0.00 | 0.00 | 0.00 | 34 | 1009.0 |
| 20260503032528 | 17 | 360 | 11.3 | 22.5 | 0.00 | 0.00 | 0.00 | 33 | 1008.9 |
| 20260503032028 | 17 | 360 | 12.9 | 29.0 | 0.00 | 0.00 | 0.00 | 34 | 1008.8 |
| 20260503031528 | 17 | 360 | 11.3 | 29.0 | 0.00 | 0.00 | 0.00 | 34 | 1008.5 |
| 20260503031028 | 17 | 360 | 14.5 | 29.0 | 0.00 | 0.00 | 0.00 | 34 | 1008.6 |
| 20260503030526 | 17 | 360 | 12.9 | 25.7 | 0.00 | 0.00 | 0.00 | 32 | 1008.5 |
| 20260503030032 | 18 | 360 | 16.1 | 25.7 | 0.00 | 0.00 | 0.00 | 29 | 1008.4 |
| 20260503025525 | 18 | 360 | 8.0 | 20.9 | 0.00 | 0.00 | 0.00 | 27 | 1008.2 |
| 20260503025025 | 18 | 360 | 11.3 | 20.9 | 0.00 | 0.00 | 0.00 | 28 | 1008.1 |
| 20260503024526 | 18 | 360 | 8.0 | 19.3 | 0.00 | 0.00 | 0.00 | 28 | 1008.1 |
| 20260503024025 | 18 | 360 | 6.4 | 17.7 | 0.00 | 0.00 | 0.00 | 28 | 1007.7 |
| 20260503023525 | 18 | 360 | 8.0 | 20.9 | 0.00 | 0.00 | 0.00 | 28 | 1007.6 |
| 20260503023026 | 18 | 360 | 8.0 | 20.9 | 0.00 | 0.00 | 0.00 | 27 | 1007.4 |
| 20260503022524 | 18 | 360 | 9.7 | 22.5 | 0.00 | 0.00 | 0.00 | 27 | 1007.3 |
| 20260503022024 | 18 | 360 | 14.5 | 24.1 | 0.00 | 0.00 | 0.00 | 28 | 1007.3 |
| 20260503021524 | 18 | 360 | 14.5 | 24.1 | 0.00 | 0.00 | 0.00 | 27 | 1007.3 |
| 20260503021024 | 18 | 360 | 11.3 | 19.3 | 0.00 | 0.00 | 0.00 | 26 | 1007.4 |
| 20260503020523 | 18 | 360 | 9.7 | 24.1 | 0.00 | 0.00 | 0.00 | 26 | 1007.6 |
| 20260503020023 | 18 | 360 | 16.1 | 24.1 | 0.00 | 0.00 | 0.00 | 26 | 1007.7 |
| 20260503015526 | 18 | 360 | 12.9 | 19.3 | 0.00 | 0.00 | 0.00 | 28 | 1007.8 |
| 20260503015022 | 18 | 360 | 9.7 | 19.3 | 0.00 | 0.00 | 0.00 | 28 | 1008.1 |
| 20260503014523 | 18 | 360 | 4.8 | 20.9 | 0.00 | 0.00 | 0.00 | 27 | 1008.0 |
| 20260503014022 | 18 | 360 | 12.9 | 20.9 | 0.00 | 0.00 | 0.00 | 28 | 1008.1 |
| 20260503013522 | 18 | 360 | 8.0 | 24.1 | 0.00 | 0.00 | 0.00 | 30 | 1008.4 |
| 20260503013022 | 18 | 360 | 14.5 | 24.1 | 0.00 | 0.00 | 0.00 | 29 | 1008.6 |
| 20260503012522 | 18 | 360 | 11.3 | 22.5 | 0.00 | 0.00 | 0.00 | 28 | 1008.4 |
| 20260503012022 | 18 | 360 | 6.4 | 22.5 | 0.00 | 0.00 | 0.00 | 28 | 1008.4 |
| 20260503011529 | 18 | 360 | 11.3 | 22.5 | 0.00 | 0.00 | 0.00 | 28 | 1008.4 |
| 20260503011023 | 19 | 360 | 12.9 | 20.9 | 0.00 | 0.00 | 0.00 | 27 | 1008.3 |
| 20260503010520 | 19 | 360 | 8.0 | 20.9 | 0.00 | 0.00 | 0.00 | 27 | 1008.1 |
| 20260503010020 | 19 | 360 | 14.5 | 22.5 | 0.00 | 0.00 | 0.00 | 27 | 1008.1 |
| 20260503005522 | 19 | 360 | 12.9 | 25.7 | 0.00 | 0.00 | 0.00 | 26 | 1007.9 |
| 20260503005021 | 19 | 360 | 19.3 | 27.4 | 0.00 | 0.00 | 0.00 | 27 | 1007.8 |
| 20260503004520 | 19 | 360 | 17.7 | 30.6 | 0.00 | 0.00 | 0.00 | 27 | 1007.6 |
| 20260503004018 | 19 | 360 | 17.7 | 40.2 | 0.00 | 0.00 | 0.00 | 25 | 1007.4 |
| 20260503003519 | 20 | 360 | 20.9 | 40.2 | 0.00 | 0.00 | 0.00 | 25 | 1007.2 |
| 20260503003019 | 20 | 360 | 20.9 | 40.2 | 0.00 | 0.00 | 0.00 | 25 | 1007.0 |
| 20260503002519 | 20 | 360 | 20.9 | 33.8 | 0.00 | 0.00 | 0.00 | 25 | 1007.3 |
| 20260503002021 | 20 | 360 | 8.0 | 19.3 | 0.00 | 0.00 | 0.00 | 23 | 1007.6 |
| 20260503001519 | 20 | 360 | 9.7 | 19.3 | 0.00 | 0.00 | 0.00 | 23 | 1007.6 |
| 20260503001018 | 20 | 360 | 11.3 | 17.7 | 0.00 | 0.00 | 0.00 | 23 | 1007.6 |
| 20260503000517 | 20 | 360 | 3.2 | 14.5 | 0.00 | 0.00 | 0.00 | 22 | 1007.7 |
| 20260503000018 | 20 | 360 | 4.8 | 14.5 | 0.00 | 0.00 | 0.00 | 23 | 1007.6 |
| 20260502235517 | 20 | 360 | 6.4 | 14.5 | 0.00 | 0.00 | 0.00 | 23 | 1007.6 |
| 20260502235018 | 20 | 360 | 4.8 | 14.5 | 0.00 | 0.00 | 0.00 | 24 | 1007.5 |
| 20260502234531 | 20 | 360 | 4.8 | 9.7 | 0.00 | 0.00 | 0.00 | 24 | 1007.5 |
| 20260502234019 | 20 | 360 | 6.4 | 19.3 | 0.00 | 0.00 | 0.00 | 24 | 1007.3 |
| 20260502233518 | 20 | 360 | 9.7 | 19.3 | 0.00 | 0.00 | 0.00 | 24 | 1007.3 |
| 20260502233017 | 20 | 360 | 8.0 | 12.9 | 0.00 | 0.00 | 0.00 | 24 | 1007.3 |
| 20260502232517 | 20 | 360 | 6.4 | 29.0 | 0.00 | 0.00 | 0.00 | 25 | 1007.3 |
| 20260502232016 | 20 | 360 | 4.8 | 38.6 | 0.00 | 0.00 | 0.00 | 26 | 1007.9 |
| 20260502231516 | 20 | 360 | 24.1 | 45.1 | 0.00 | 0.00 | 0.00 | 28 | 1007.9 |
| 20260502231016 | 21 | 360 | 27.4 | 45.1 | 0.00 | 0.00 | 0.00 | 22 | 1007.7 |
| 20260502230515 | 21 | 360 | 27.4 | 43.5 | 0.00 | 0.00 | 0.00 | 20 | 1007.8 |
| 20260502230019 | 22 | 360 | 6.4 | 24.1 | 0.00 | 0.00 | 0.00 | 18 | 1007.4 |
| 20260502225513 | 22 | 360 | 14.5 | 24.1 | 0.00 | 0.00 | 0.00 | 17 | 1007.1 |
| 20260502225014 | 22 | 360 | 9.7 | 20.9 | 0.00 | 0.00 | 0.00 | 17 | 1007.0 |
| 20260502224514 | 23 | 360 | 9.7 | 20.9 | 0.00 | 0.00 | 0.00 | 16 | 1006.8 |
| 20260502224015 | 23 | 360 | 6.4 | 14.5 | 0.00 | 0.00 | 0.00 | 16 | 1006.8 |
| 20260502223512 | 23 | 360 | 6.4 | 14.5 | 0.00 | 0.00 | 0.00 | 16 | 1006.8 |
| 20260502223012 | 23 | 360 | 4.8 | 16.1 | 0.00 | 0.00 | 0.00 | 15 | 1006.9 |
| 20260502222513 | 24 | 360 | 4.8 | 14.5 | 0.00 | 0.00 | 0.00 | 15 | 1007.1 |
| 20260502222012 | 23 | 360 | 1.6 | 14.5 | 0.00 | 0.00 | 0.00 | 15 | 1007.1 |
| 20260502221510 | 23 | 360 | 6.4 | 14.5 | 0.00 | 0.00 | 0.00 | 15 | 1007.2 |
| 20260502221009 | 24 | 360 | 4.8 | 14.5 | 0.00 | 0.00 | 0.00 | 15 | 1007.3 |
| 20260502220508 | 23 | 360 | 4.8 | 12.9 | 0.00 | 0.00 | 0.00 | 15 | 1007.3 |
| 20260502220018 | 23 | 360 | 0.0 | 9.7 | 0.00 | 0.00 | 0.00 | 16 | 1007.4 |
| 20260502215510 | 23 | 360 | 3.2 | 17.7 | 0.00 | 0.00 | 0.00 | 16 | 1007.5 |
| 20260502215006 | 23 | 360 | 9.7 | 17.7 | 0.00 | 0.00 | 0.00 | 16 | 1007.5 |
| 20260502214507 | 23 | 360 | 6.4 | 19.3 | 0.00 | 0.00 | 0.00 | 16 | 1007.7 |
| 20260502214006 | 23 | 360 | 11.3 | 22.5 | 0.00 | 0.00 | 0.00 | 16 | 1007.8 |
| 20260502213505 | 23 | 360 | 12.9 | 25.7 | 0.00 | 0.00 | 0.00 | 16 | 1007.8 |
| 20260502213015 | 23 | 360 | 6.4 | 25.7 | 0.00 | 0.00 | 0.00 | 16 | 1008.0 |
| 20260502212504 | 24 | 360 | 11.3 | 20.9 | 0.00 | 0.00 | 0.00 | 15 | 1008.0 |
| 20260502212004 | 24 | 360 | 11.3 | 19.3 | 0.00 | 0.00 | 0.00 | 15 | 1008.1 |
| 20260502211503 | 23 | 360 | 4.8 | 17.7 | 0.00 | 0.00 | 0.00 | 15 | 1008.1 |
| 20260502211002 | 23 | 360 | 6.4 | 17.7 | 0.00 | 0.00 | 0.00 | 15 | 1008.1 |
| 20260502210501 | 23 | 360 | 6.4 | 24.1 | 0.00 | 0.00 | 0.00 | 16 | 1008.3 |
| 20260502210001 | 23 | 360 | 9.7 | 24.1 | 0.00 | 0.00 | 0.00 | 15 | 1008.3 |
| 20260502205501 | 24 | 360 | 9.7 | 22.5 | 0.00 | 0.00 | 0.00 | 15 | 1008.4 |
| 20260502205001 | 25 | 360 | 8.0 | 19.3 | 0.00 | 0.00 | 0.00 | 14 | 1008.3 |
| 20260502204501 | 25 | 360 | 8.0 | 19.3 | 0.00 | 0.00 | 0.00 | 14 | 1008.5 |
| 20260502204103 | 25 | 360 | 8.0 | 19.3 | 0.00 | 0.00 | 0.00 | 14 | 1008.5 |
| 20260502203559 | 25 | 360 | 6.4 | 20.9 | 0.00 | 0.00 | 0.00 | 15 | 1008.5 |
| 20260502203112 | 25 | 360 | 6.4 | 20.9 | 0.00 | 0.00 | 0.00 | 15 | 1008.7 |
| 20260502202557 | 25 | 360 | 9.7 | 17.7 | 0.00 | 0.00 | 0.00 | 15 | 1008.6 |
| 20260502202101 | 23 | 360 | 4.8 | 19.3 | 0.00 | 0.00 | 0.00 | 16 | 1008.7 |
| 20260502201556 | 24 | 360 | 4.8 | 27.4 | 0.00 | 0.00 | 0.00 | 15 | 1008.8 |
| 20260502201056 | 25 | 360 | 12.9 | 20.9 | 0.00 | 0.00 | 0.00 | 15 | 1008.9 |
| 20260502200554 | 25 | 360 | 6.4 | 14.5 | 0.00 | 0.00 | 0.00 | 14 | 1008.9 |
| 20260502200054 | 24 | 360 | 6.4 | 16.1 | 0.00 | 0.00 | 0.00 | 15 | 1009.0 |
| 20260502195553 | 24 | 360 | 9.7 | 17.7 | 0.00 | 0.00 | 0.00 | 15 | 1009.1 |
| 20260502195053 | 24 | 360 | 6.4 | 17.7 | 0.00 | 0.00 | 0.00 | 15 | 1009.0 |
| 20260502194555 | 24 | 360 | 6.4 | 17.7 | 0.00 | 0.00 | 0.00 | 14 | 1009.1 |
| 20260502194051 | 23 | 360 | 4.8 | 16.1 | 0.00 | 0.00 | 0.00 | 15 | 1009.1 |
| 20260502193551 | 23 | 360 | 4.8 | 16.1 | 0.00 | 0.00 | 0.00 | 15 | 1009.1 |
| 20260502193051 | 23 | 360 | 4.8 | 20.9 | 0.00 | 0.00 | 0.00 | 15 | 1009.2 |
| 20260502192554 | 23 | 360 | 8.0 | 22.5 | 0.00 | 0.00 | 0.00 | 15 | 1009.2 |
| 20260502192049 | 22 | 360 | 6.4 | 19.3 | 0.00 | 0.00 | 0.00 | 15 | 1009.3 |
| 20260502191551 | 22 | 360 | 8.0 | 20.9 | 0.00 | 0.00 | 0.00 | 15 | 1009.3 |
| 20260502191052 | 23 | 360 | 11.3 | 20.9 | 0.00 | 0.00 | 0.00 | 15 | 1009.4 |
| 20260502190548 | 22 | 360 | 8.0 | 20.9 | 0.00 | 0.00 | 0.00 | 14 | 1009.4 |
| 20260502190059 | 22 | 360 | 12.9 | 22.5 | 0.00 | 0.00 | 0.00 | 14 | 1009.5 |
| 20260502185547 | 22 | 360 | 9.7 | 22.5 | 0.00 | 0.00 | 0.00 | 15 | 1009.5 |
| 20260502185047 | 22 | 360 | 9.7 | 19.3 | 0.00 | 0.00 | 0.00 | 14 | 1009.6 |
| 20260502184547 | 23 | 360 | 11.3 | 17.7 | 0.00 | 0.00 | 0.00 | 14 | 1009.7 |
| 20260502184047 | 23 | 360 | 6.4 | 20.9 | 0.00 | 0.00 | 0.00 | 14 | 1009.7 |
| 20260502183546 | 23 | 360 | 9.7 | 20.9 | 0.00 | 0.00 | 0.00 | 14 | 1009.8 |
| 20260502183056 | 23 | 360 | 4.8 | 16.1 | 0.00 | 0.00 | 0.00 | 14 | 1009.9 |
| 20260502182545 | 23 | 360 | 3.2 | 17.7 | 0.00 | 0.00 | 0.00 | 15 | 1009.9 |
| 20260502182047 | 23 | 360 | 6.4 | 17.7 | 0.00 | 0.00 | 0.00 | 15 | 1009.9 |
| 20260502181545 | 23 | 360 | 4.8 | 14.5 | 0.00 | 0.00 | 0.00 | 15 | 1010.0 |
| 20260502181046 | 23 | 360 | 3.2 | 14.5 | 0.00 | 0.00 | 0.00 | 15 | 1009.9 |
| 20260502180544 | 23 | 360 | 3.2 | 14.5 | 0.00 | 0.00 | 0.00 | 15 | 1010.0 |
| 20260502164031 | 20 | 360 | 1.6 | 6.4 | 0.00 | 0.00 | 0.00 | 15 | 1010.6 |
| 20260502163530 | 19 | 360 | 3.2 | 8.0 | 0.00 | 0.00 | 0.00 | 15 | 1010.5 |
| 20260502163048 | 18 | 360 | 3.2 | 8.0 | 0.00 | 0.00 | 0.00 | 16 | 1010.6 |
| 20260502162530 | 18 | 360 | 1.6 | 6.4 | 0.00 | 0.00 | 0.00 | 17 | 1010.6 |
| 20260502162030 | 17 | 360 | 0.0 | 4.8 | 0.00 | 0.00 | 0.00 | 17 | 1010.6 |
| 20260502161523 | 17 | 360 | 0.0 | 4.8 | 0.00 | 0.00 | 0.00 | 18 | 1010.6 |
| 20260502161027 | 16 | 360 | 0.0 | 6.4 | 0.00 | 0.00 | 0.00 | 18 | 1010.7 |
| 20260502160526 | 16 | 360 | 1.6 | 6.4 | 0.00 | 0.00 | 0.00 | 18 | 1010.7 |
| 20260502152014 | 14 | 67 | 0.0 | 1.6 | 0.00 | 0.00 | 0.00 | 20 | 1010.7 |
| 20260502151513 | 14 | 360 | 0.0 | 1.6 | 0.00 | 0.00 | 0.00 | 20 | 1010.6 |
| 20260502151013 | 13 | 83 | 0.0 | 1.6 | 0.00 | 0.00 | 0.00 | 21 | 1010.7 |
| 20260502150514 | 13 | 88 | 0.0 | 1.6 | 0.00 | 0.00 | 0.00 | 21 | 1010.7 |
| 20260502130505 | 11 | 360 | 0.0 | 3.2 | 0.00 | 0.00 | 0.00 | 19 | 1009.8 |
| 20260502123502 | 11 | 207 | 1.6 | 3.2 | 0.00 | 0.00 | 0.00 | 18 | 1009.7 |
| 20260502123002 | 11 | 207 | 0.0 | 4.8 | 0.00 | 0.00 | 0.00 | 18 | 1009.8 |
| 20260502122502 | 11 | 207 | 0.0 | 4.8 | 0.00 | 0.00 | 0.00 | 18 | 1009.8 |
| 20260502122002 | 11 | 217 | 3.2 | 4.8 | 0.00 | 0.00 | 0.00 | 18 | 1009.8 |
| 20260502121502 | 11 | 215 | 1.6 | 3.2 | 0.00 | 0.00 | 0.00 | 18 | 1009.7 |
| 20260502121002 | 11 | 360 | 0.0 | 3.2 | 0.00 | 0.00 | 0.00 | 18 | 1009.7 |
| 20260502120601 | 10 | 213 | 1.6 | 3.2 | 0.00 | 0.00 | 0.00 | 18 | 1009.7 |
| 20260502115500 | 10 | 196 | 1.6 | 4.8 | 0.00 | 0.00 | 0.00 | 18 | 1009.7 |
| 20260502115100 | 10 | 360 | 1.6 | 4.8 | 0.00 | 0.00 | 0.00 | 18 | 1009.7 |
| 20260502114604 | 10 | 193 | 1.6 | 4.8 | 0.00 | 0.00 | 0.00 | 18 | 1009.8 |
| 20260502114502 | 10 | 360 | 1.6 | 4.8 | 0.00 | 0.00 | 0.00 | 18 | 1009.8 |
| 20260502114100 | 10 | 360 | 0.0 | 4.8 | 0.00 | 0.00 | 0.00 | 18 | 1009.8 |
| 20260502113603 | 10 | 360 | 1.6 | 4.8 | 0.00 | 0.00 | 0.00 | 18 | 1009.7 |
| 20260502113100 | 10 | 360 | 1.6 | 3.2 | 0.00 | 0.00 | 0.00 | 18 | 1009.7 |
| 20260502112558 | 11 | 190 | 1.6 | 3.2 | 0.00 | 0.00 | 0.00 | 17 | 1009.8 |
| 20260502112058 | 11 | 360 | 0.0 | 3.2 | 0.00 | 0.00 | 0.00 | 17 | 1009.9 |
| 20260502111559 | 11 | 190 | 0.0 | 3.2 | 0.00 | 0.00 | 0.00 | 17 | 1010.0 |
| 20260502111100 | 11 | 187 | 0.0 | 4.8 | 0.00 | 0.00 | 0.00 | 17 | 1009.9 |
| 20260502110602 | 11 | 184 | 1.6 | 4.8 | 0.00 | 0.00 | 0.00 | 16 | 1010.0 |
| 20260502110104 | 11 | 184 | 0.0 | 1.6 | 0.00 | 0.00 | 0.00 | 18 | 1010.0 |
| 20260502105558 | 11 | 184 | 0.0 | 1.6 | 0.00 | 0.00 | 0.00 | 18 | 1009.9 |
| 20260502105059 | 11 | 360 | 0.0 | 1.6 | 0.00 | 0.00 | 0.00 | 19 | 1010.0 |
| 20260502104557 | 11 | 360 | 0.0 | 3.2 | 0.00 | 0.00 | 0.00 | 17 | 1010.0 |
| 20260502104056 | 11 | 360 | 0.0 | 3.2 | 0.00 | 0.00 | 0.00 | 18 | 1010.0 |
| 20260502103556 | 11 | 360 | 0.0 | 4.8 | 0.00 | 0.00 | 0.00 | 16 | 1010.0 |
| 20260502103056 | 11 | 202 | 1.6 | 4.8 | 0.00 | 0.00 | 0.00 | 16 | 1009.9 |
| 20260502102555 | 12 | 188 | 1.6 | 4.8 | 0.00 | 0.00 | 0.00 | 16 | 1009.9 |
| 20260502102055 | 11 | 187 | 0.0 | 8.0 | 0.00 | 0.00 | 0.00 | 17 | 1009.8 |
| 20260502101558 | 11 | 171 | 1.6 | 8.0 | 0.00 | 0.00 | 0.00 | 17 | 1009.8 |
| 20260502101057 | 11 | 213 | 0.0 | 3.2 | 0.00 | 0.00 | 0.00 | 17 | 1009.9 |
| 20260502100555 | 10 | 214 | 0.0 | 4.8 | 0.00 | 0.00 | 0.00 | 17 | 1009.9 |
| 20260502091049 | 11 | 225 | 1.6 | 3.2 | 0.00 | 0.00 | 0.00 | 18 | 1010.1 |
| 20260502090548 | 11 | 225 | 0.0 | 1.6 | 0.00 | 0.00 | 0.00 | 17 | 1010.2 |
| 20260502071033 | 13 | 360 | 0.0 | 3.2 | 0.00 | 0.00 | 0.00 | 16 | 1010.7 |
| 20260502070532 | 13 | 360 | 0.0 | 3.2 | 0.00 | 0.00 | 0.00 | 15 | 1010.6 |
| 20260502070045 | 14 | 210 | 0.0 | 3.2 | 0.00 | 0.00 | 0.00 | 15 | 1010.7 |
| 20260502065531 | 14 | 208 | 0.0 | 4.8 | 0.00 | 0.00 | 0.00 | 14 | 1010.7 |
| 20260502065030 | 14 | 360 | 1.6 | 4.8 | 0.00 | 0.00 | 0.00 | 14 | 1010.6 |
| 20260502064539 | 14 | 210 | 0.0 | 3.2 | 0.00 | 0.00 | 0.00 | 14 | 1010.5 |
| 20260502064030 | 14 | 360 | 0.0 | 3.2 | 0.00 | 0.00 | 0.00 | 14 | 1010.6 |
| 20260502063530 | 14 | 360 | 0.0 | 3.2 | 0.00 | 0.00 | 0.00 | 14 | 1010.7 |
| 20260502063030 | 14 | 360 | 0.0 | 3.2 | 0.00 | 0.00 | 0.00 | 14 | 1010.6 |
| 20260502062530 | 15 | 360 | 0.0 | 3.2 | 0.00 | 0.00 | 0.00 | 14 | 1010.7 |
| 20260502062031 | 15 | 360 | 1.6 | 4.8 | 0.00 | 0.00 | 0.00 | 14 | 1010.7 |
| 20260502061530 | 15 | 360 | 0.0 | 6.4 | 0.00 | 0.00 | 0.00 | 14 | 1010.7 |
| 20260502061028 | 15 | 360 | 3.2 | 6.4 | 0.00 | 0.00 | 0.00 | 14 | 1010.7 |
| 20260502060529 | 15 | 360 | 0.0 | 4.8 | 0.00 | 0.00 | 0.00 | 14 | 1010.8 |
| 20260502060030 | 15 | 360 | 1.6 | 4.8 | 0.00 | 0.00 | 0.00 | 13 | 1010.7 |
| 20260502055529 | 15 | 360 | 1.6 | 4.8 | 0.00 | 0.00 | 0.00 | 14 | 1010.7 |
| 20260502055029 | 15 | 360 | 1.6 | 4.8 | 0.00 | 0.00 | 0.00 | 13 | 1010.7 |
| 20260502054528 | 15 | 360 | 1.6 | 4.8 | 0.00 | 0.00 | 0.00 | 13 | 1010.7 |
| 20260502054027 | 15 | 360 | 3.2 | 4.8 | 0.00 | 0.00 | 0.00 | 13 | 1010.8 |
| 20260502053529 | 15 | 360 | 1.6 | 4.8 | 0.00 | 0.00 | 0.00 | 13 | 1010.8 |
| 20260502053027 | 15 | 360 | 1.6 | 4.8 | 0.00 | 0.00 | 0.00 | 13 | 1010.9 |
| 20260502052528 | 15 | 360 | 1.6 | 4.8 | 0.00 | 0.00 | 0.00 | 13 | 1010.9 |
| 20260502052028 | 15 | 360 | 1.6 | 4.8 | 0.00 | 0.00 | 0.00 | 13 | 1010.9 |
| 20260502051529 | 15 | 360 | 1.6 | 4.8 | 0.00 | 0.00 | 0.00 | 13 | 1010.9 |